This is the latest recevied weather packets stored in our database for station/object WP3XM. If no packets are shown the sender has not sent any weather packets the latest 1 day(s).
| Time | Temp. | Humidity | Pressure | Rain* | Wind** | Luminosity | Snow |
|---|---|---|---|---|---|---|---|
| 1836274719 | 24.44° C | 92% | 1016.8 hPa | 0 mm | 0.45 m/s, 182° | 0 W/m² | - |
| 1836274571 | 24.44° C | 92% | 1016.7 hPa | 0 mm | 0 m/s | 0 W/m² | - |
| 1836274417 | 24.44° C | 92% | 1016.8 hPa | 0 mm | 0 m/s | 0 W/m² | - |
| 1836274270 | 24.44° C | 92% | 1016.5 hPa | 0 mm | 0 m/s | 0 W/m² | - |
| 1836274115 | 24.44° C | 92% | 1016.7 hPa | 0 mm | 0 m/s | 0 W/m² | - |
| 1778042919 | 25.56° C | 85% | 1019.2 hPa | 0 mm | 0 m/s | 0 W/m² | - |
| 1778042617 | 25.56° C | 84% | 1019.1 hPa | 0 mm | 0 m/s | 0 W/m² | - |
| 1778042313 | 25.56° C | 83% | 1019.3 hPa | 0 mm | 0 m/s | 0 W/m² | - |
| 1778042011 | 25.56° C | 83% | 1019.1 hPa | 0 mm | 0 m/s | 0 W/m² | - |
| 1778041709 | 25.56° C | 83% | 1019.2 hPa | 0 mm | 0 m/s | 0 W/m² | - |
| 1778041408 | 25.56° C | 82% | 1018.9 hPa | 0 mm | 0.45 m/s, 163° | 0 W/m² | - |
| 1778041106 | 26.11° C | 82% | 1019.1 hPa | 0 mm | 0 m/s | 0 W/m² | - |
| 1778040803 | 26.11° C | 83% | 1019.1 hPa | 0 mm | 0.89 m/s, 168° | 0 W/m² | - |
| 1778040500 | 26.11° C | 83% | 1019.1 hPa | 0 mm | 0.45 m/s, 163° | 0 W/m² | - |
| 1778040197 | 26.11° C | 83% | 1019.1 hPa | 0 mm | 0.45 m/s, 161° | 0 W/m² | - |
| 1778039893 | 26.11° C | 83% | 1019.2 hPa | 0 mm | 1.34 m/s, 96° | 0 W/m² | - |
| 1778039591 | 26.11° C | 82% | 1019.2 hPa | 0 mm | 2.24 m/s, 117° | 0 W/m² | - |
| 1778039288 | 26.11° C | 82% | 1019.3 hPa | 0 mm | 1.34 m/s, 82° | 0 W/m² | - |
| 1778038985 | 26.11° C | 82% | 1019.3 hPa | 0 mm | 0.45 m/s, 158° | 0 W/m² | - |
| 1778038682 | 26.11° C | 83% | 1019.3 hPa | 0 mm | 0.89 m/s, 70° | 0 W/m² | - |
| 1778038379 | 26.11° C | 83% | 1019.4 hPa | 0 mm | 2.24 m/s, 71° | 0 W/m² | - |
| 1778038076 | 26.11° C | 83% | 1019.4 hPa | 0 mm | 1.34 m/s, 113° | 0 W/m² | - |
| 1778037773 | 26.11° C | 84% | 1019.4 hPa | 0 mm | 0.89 m/s, 96° | 0 W/m² | - |
| 1778037469 | 26.11° C | 84% | 1019.3 hPa | 0 mm | 2.24 m/s, 82° | 0 W/m² | - |
| 1778037166 | 26.11° C | 85% | 1019.4 hPa | 0 mm | 1.34 m/s, 66° | 0 W/m² | - |
* Rain latest hour (hover to see other rain measurements)
** Current wind speed in m/s (hover to see current wind gust speed)